Elmo, TX

8:36 PM CDT on August 28, 2016 (GMT -0500)
Terrell Municipal

Weather History for KTRL - August, 2013

Change the Weather History Date:

Sunday, August 25, 2013

  Actual Average (KDFW) Record (KDFW)
Temperature  
Mean Temperature 86 °F 85 °F  
Max Temperature 98 °F 95 °F 106 °F (1952)
Min Temperature 75 °F 74 °F 61 °F (1926)
Degree Days  
Heating Degree Days 0 0  
Month to date heating degree days 0  
Since 1 June heating degree days 0  
Since 1 July heating degree days 0  
Cooling Degree Days 21 20  
Month to date cooling degree days 520  
Year to date cooling degree days 2064  
Since 1 June cooling degree days 1642  
Growing Degree Days 36 (Base 50)    
Moisture  
Dew Point 65 °F    
Average Humidity 51    
Maximum Humidity 82    
Minimum Humidity 31    
Precipitation  
Precipitation 0.00 in 0.07 in 1.37 in (1971)
Month to date precipitation 1.43  
Year to date precipitation 23.63  
Sea Level Pressure  
Sea Level Pressure 30.08 in    
Wind  
Wind Speed 5 mph (East)    
Max Wind Speed 16 mph    
Max Gust Speed 23 mph    
Visibility 10 miles    
Events      
T = Trace of Precipitation, MM = Missing Value Source: NWS Daily Summary

Daily Weather History Graph

Daily Weather History Graph

Search for Another Location

Airport or City:

Trip Planner

Search our weather history database for the weather conditions in past years. The results will help you decide how hot, cold, wet, or windy it might be!

Date:

Astronomy

Aug. 25, 2013 Rise Set
Actual Time 6:55 AM CDT 7:58 PM CDT
Civil Twilight 6:30 AM CDT 8:23 PM CDT
Nautical Twilight 5:59 AM CDT 8:53 PM CDT
Astronomical Twilight 5:28 AM CDT 9:24 PM CDT
Moon 10:50 PM CDT (8/25) 11:38 AM CDT (8/25)
Length of Visible Light 13h 53m
Length of Day
13h 02m
Waning Gibbous, 75% of the Moon is Illuminated
Aug 25
Waning Gibbous
Aug 28
Last Quarter
Sep 5
New
Sep 12
First Quarter
Sep 19
Full

Hourly Weather History & Observations

Time (CDT) Temp. Heat Index Dew Point Humidity Pressure Visibility Wind Dir Wind Speed Gust Speed Precip Events Conditions
12:53 AM 82.9 °F 85.0 °F 66.0 °F 56% 30.04 in 10.0 mi East 3.5 mph - N/A   Clear
1:53 AM 81.0 °F 83.3 °F 66.9 °F 62% 30.05 in 10.0 mi Calm Calm - N/A   Clear
2:53 AM 80.1 °F 82.3 °F 66.9 °F 64% 30.06 in 10.0 mi ESE 3.5 mph - N/A   Clear
3:53 AM 79.0 °F - 68.0 °F 69% 30.07 in 10.0 mi ESE 4.6 mph - N/A   Clear
4:53 AM 78.1 °F - 68.0 °F 71% 30.08 in 10.0 mi East 3.5 mph - N/A   Clear
5:53 AM 77.0 °F - 69.1 °F 76% 30.10 in 10.0 mi Calm Calm - N/A   Clear
6:53 AM 75.9 °F - 70.0 °F 82% 30.11 in 10.0 mi East 3.5 mph - N/A   Clear
7:53 AM 77.0 °F - 71.1 °F 82% 30.13 in 10.0 mi NE 3.5 mph - N/A   Clear
8:53 AM 82.0 °F 85.9 °F 70.0 °F 67% 30.13 in 10.0 mi East 4.6 mph - N/A   Clear
9:53 AM 84.9 °F 89.4 °F 70.0 °F 61% 30.13 in 10.0 mi East 4.6 mph - N/A   Clear
10:53 AM 88.0 °F 90.7 °F 66.9 °F 49% 30.14 in 10.0 mi East 8.1 mph - N/A   Clear
11:53 AM 91.0 °F 93.0 °F 64.9 °F 42% 30.13 in 10.0 mi East 10.4 mph 18.4 mph N/A   Clear
12:53 PM 93.0 °F 94.2 °F 63.0 °F 37% 30.11 in 10.0 mi East 12.7 mph 20.7 mph N/A   Clear
1:53 PM 95.0 °F 96.0 °F 63.0 °F 34% 30.09 in 10.0 mi ESE 10.4 mph 23.0 mph N/A   Clear
2:53 PM 95.0 °F 97.0 °F 64.0 °F 36% 30.08 in 10.0 mi East 11.5 mph 19.6 mph N/A   Partly Cloudy
3:53 PM 95.0 °F 96.0 °F 63.0 °F 34% 30.06 in 10.0 mi East 10.4 mph 18.4 mph N/A   Scattered Clouds
4:53 PM 97.0 °F 97.8 °F 62.1 °F 31% 30.04 in 10.0 mi ESE 16.1 mph - N/A   Scattered Clouds
5:53 PM 97.0 °F 97.8 °F 62.1 °F 31% 30.04 in 10.0 mi ESE 10.4 mph - N/A   Partly Cloudy
6:53 PM 95.0 °F 95.2 °F 61.0 °F 32% 30.04 in 10.0 mi SE 11.5 mph - N/A   Partly Cloudy
7:53 PM 91.9 °F 91.5 °F 60.1 °F 34% 30.04 in 10.0 mi ESE 5.8 mph - N/A   Clear
8:53 PM 89.1 °F 88.8 °F 60.1 °F 38% 30.06 in 10.0 mi East 5.8 mph - N/A   Clear
9:53 PM 87.1 °F 87.0 °F 61.0 °F 41% 30.09 in 10.0 mi East 4.6 mph - N/A   Clear
10:53 PM 84.9 °F 85.4 °F 62.1 °F 46% 30.10 in 10.0 mi East 5.8 mph - N/A   Clear
11:53 PM 82.9 °F 83.7 °F 62.1 °F 49% 30.12 in 10.0 mi East 4.6 mph - N/A   Clear